Tracking 30995 objects as of 7-Jul-2025
HD Live streaming from Space Station
objects crossing your sky now

ONEWEB-0421

Track ONEWEB-0421 now!
10-day predictions
ONEWEB-0421 is classified as:


NORAD ID: 50496
Int'l Code: 2021-132AD
Perigee: 1,195.4 km
Apogee: 1,198.1 km
Inclination: 87.9 °
Period: 109.2 minutes
Semi major axis: 7567 km
RCS: Unknown
Launch date: December 27, 2021
Source: United Kingdom (UK)
Launch site: TYURATAM MISSILE AND SPACE COMPLEX (TTMTR)
Your satellite tracking list
CZ-4C DEB
Track 1 satellite(s)




NASA's NSSDC Master Catalog

Two Line Element Set (TLE):
1 50496U 21132AD  25187.62386970 -.00001007  00000-0 -25875-2 0  9996
2 50496  87.9130  44.1171 0001766  94.9878 265.1455 13.18712306176078
Source of the keplerian elements: AFSPC